This demonstration page uses our WeatherBlox Daily Observations layout. Learn more.

Left ArrowRight Arrow

Hourly Observations for March 23, 2022

Temp ( °F °C ) Dew Point ( °F °C ) Humidity (%) Winds ( mph kmh ) Pressure ( in mb ) Visibility ( mi km ) Precip ( " mm )
12:53 am 00:53 Clear 34 1.1 20 -6.7 56 56 NNE 3 6 30.19 1023 10 16 0.00 0.00
1:53 am 01:53 Clear 34 1.1 20 -6.7 56 56 SW 6 9 30.19 1022 10 16 0.00 0.00
2:53 am 02:53 Clear 35 1.7 22 -5.6 59 59 SW 13 20 30.17 1022 10 16 0.00 0.00
3:53 am 03:53 Clear 34 1.1 23 -5 64 64 WSW 8 13 30.16 1022 10 16 0.00 0.00
4:53 am 04:53 Clear 33 0.6 23 -5 66 66 WSW 7 11 30.15 1021 10 16 0.00 0.00
5:53 am 05:53 Clear 31 -0.6 23 -5 72 72 SW 7 11 30.14 1021 10 16 0.00 0.00
6:53 am 06:53 Clear 33 0.6 26 -3.3 75 75 VRB 3 6 30.13 1020 10 16 0.00 0.00
7:53 am 07:53 Sunny 35 1.7 28 -2.2 76 76 SW 10 17 30.14 1021 10 16 0.00 0.00
8:53 am 08:53 Sunny 45 7.2 32 0 61 61 WSW 9 15 30.12 1020 10 16 0.00 0.00
9:53 am 09:53 Sunny 52 11.1 32 0 47 47 SW 21 33 30.09 1019 10 16 0.00 0.00
10:53 am 10:53 Sunny 55 12.8 32 0 42 42 SW 23 37 30.07 1018 10 16 0.00 0.00
11:53 am 11:53 Sunny 60 15.6 32 0 35 35 SW 23 37 30.03 1017 10 16 0.00 0.00
12:53 pm 12:53 Sunny 64 17.8 34 1.1 33 33 SSW 22 35 29.99 1016 10 16 0.00 0.00
1:53 pm 13:53 Sunny 70 21.1 33 0.6 26 26 WSW 22 35 29.95 1014 10 16 0.00 0.00
2:53 pm 14:53 Sunny 72 22.2 32 0 23 23 W 25 41 29.92 1013 10 16 0.00 0.00
3:53 pm 15:53 Sunny 74 23.3 31 -0.6 20 20 WSW 22 35 29.89 1012 10 16 0.00 0.00
4:53 pm 16:53 Sunny 73 22.8 31 -0.6 21 21 W 21 33 29.87 1012 10 16 0.00 0.00
5:53 pm 17:53 Sunny 73 22.8 29 -1.7 19 19 W 16 26 29.85 1011 10 16 0.00 0.00
6:53 pm 18:53 Sunny 69 20.6 30 -1.1 23 23 W 10 17 29.85 1011 10 16 0.00 0.00
7:53 pm 19:53 Clear 58 14.4 31 -0.6 36 36 W 10 17 29.85 1011 10 16 0.00 0.00
8:53 pm 20:53 Mostly Clear 54 12.2 33 0.6 45 45 W 9 15 29.84 1011 10 16 0.00 0.00
9:53 pm 21:53 Mostly Clear 49 9.4 32 0 52 52 SSW 3 6 29.83 1010 10 16 0.00 0.00
10:53 pm 22:53 Cloudy 56 13.3 35 1.7 46 46 SSW 9 15 29.81 1010 10 16 0.00 0.00
11:53 pm 23:53 Cloudy 52 11.1 35 1.7 53 53 WNW 5 7 29.80 1009 10 16 0.00 0.00

Powered by AerisWeather